EW2281 Weather Reports


time (UTC)temp
C
wind
direction
speed
KPH
gust
KPH
rain 1hr
cm
rain 24hr
cm
rain mn
cm
humidity
%
barometer
mb
20260503200325 15 187 3.2 14.5 0.00 0.00 0.00 38 967.9
20260503200048 15 331 3.2 11.3 0.00 0.00 0.00 42 967.9
20260503195324 14 214 3.2 11.3 0.00 0.00 0.00 43 968.0
20260503194825 14 317 4.8 14.5 0.00 0.00 0.00 44 968.1
20260503194324 13 322 4.8 14.5 0.00 0.00 0.00 40 968.2
20260503193824 14 238 3.2 14.5 0.00 0.00 0.00 39 968.2
20260503193813 14 236 3.2 11.3 0.00 0.00 0.00 40 968.3
20260503192826 14 273 3.2 9.7 0.00 0.00 0.00 41 968.3
20260503192543 13 207 4.8 12.9 0.00 0.00 0.00 41 968.3
20260503191825 14 235 4.8 14.5 0.00 0.00 0.00 39 968.4
20260503191324 14 10 3.2 14.5 0.00 0.00 0.00 44 968.4
20260503190825 13 35 3.2 11.3 0.00 0.00 0.00 42 968.3
20260503190326 13 291 4.8 14.5 0.00 0.00 0.00 41 968.6
20260503185824 14 345 4.8 14.5 0.00 0.00 0.00 42 968.6
20260503185324 14 55 4.8 14.5 0.00 0.00 0.00 42 968.7
20260503184824 13 298 3.2 14.5 0.00 0.00 0.00 43 968.7
20260503184324 13 229 4.8 14.5 0.00 0.00 0.00 43 968.7
20260503183825 13 323 3.2 12.9 0.00 0.00 0.00 43 968.8
20260503183325 13 300 3.2 11.3 0.00 0.00 0.00 42 968.8
20260503182824 13 295 4.8 14.5 0.00 0.00 0.00 48 968.9
20260503182322 13 281 4.8 16.1 0.00 0.00 0.00 47 968.9
20260503181823 13 24 4.8 16.1 0.00 0.00 0.00 42 969.0
20260503181324 13 317 3.2 12.9 0.00 0.00 0.00 43 968.9
20260503180823 13 292 4.8 20.9 0.00 0.00 0.00 45 968.9
20260503180324 13 59 6.4 27.4 0.00 0.00 0.00 40 968.9
20260503175820 13 325 4.8 27.4 0.00 0.00 0.00 43 969.0
20260503175322 13 298 4.8 17.7 0.00 0.00 0.00 47 969.1
20260503174820 13 280 4.8 16.1 0.00 0.00 0.00 45 969.1
20260503174759 13 334 3.2 16.1 0.00 0.00 0.00 48 969.2
20260503173818 12 40 1.6 8.0 0.00 0.00 0.00 47 969.2
20260503173318 12 234 3.2 16.1 0.00 0.00 0.00 47 969.2
20260503172813 12 342 4.8 16.1 0.00 0.00 0.00 43 969.2
20260503172758 13 288 4.8 19.3 0.00 0.00 0.00 45 969.3
20260503171807 12 150 4.8 19.3 0.00 0.00 0.00 45 969.2
20260503171307 12 23 4.8 19.3 0.00 0.00 0.00 46 969.2
20260503171029 12 232 4.8 19.3 0.00 0.00 0.00 44 969.4
20260503170305 12 81 3.2 16.1 0.00 0.00 0.00 46 969.3
20260503150707 9 63 3.2 17.7 0.00 0.00 0.00 53 970.5
20260503150202 9 234 4.8 17.7 0.00 0.00 0.00 54 970.4
20260503130949 6 299 1.6 11.3 0.00 0.00 0.00 67 970.8
20260503130444 6 36 1.6 9.7 0.00 0.00 0.00 69 970.9
20260503110331 1 277 0.0 0.0 0.00 0.00 0.00 83 970.2
20260503081306 2 42 0.0 4.8 0.00 0.00 0.00 76 969.1
20260503080803 2 282 0.0 0.0 0.00 0.00 0.00 76 969.1
20260503080302 2 89 0.0 6.4 0.00 0.00 0.00 76 969.0
20260503072251 2 38 1.6 9.7 0.00 0.00 0.00 75 968.9
20260503071751 3 351 1.6 9.7 0.00 0.00 0.00 74 968.9
20260503071246 2 46 0.0 6.4 0.00 0.00 0.00 75 968.9
20260503071005 3 26 0.0 6.4 0.00 0.00 0.00 74 968.9
20260503070455 2 327 0.0 4.8 0.00 0.00 0.00 75 968.9
20260503070335 3 49 1.6 6.4 0.00 0.00 0.00 74 968.9
20260503055004 3 32 0.0 4.8 0.00 0.00 0.00 72 968.9
20260503054223 3 306 0.0 4.8 0.00 0.00 0.00 72 969.0
20260503053716 3 344 0.0 0.0 0.00 0.00 0.00 72 968.9
20260503053210 3 286 0.0 0.0 0.00 0.00 0.00 72 969.0
20260503052920 3 283 0.0 0.0 0.00 0.03 0.00 71 969.0
20260503052416 3 273 0.0 0.0 0.00 0.03 0.00 71 969.0
20260503051652 3 267 0.0 0.0 0.00 0.05 0.00 72 969.0
20260503051145 4 265 0.0 0.0 0.00 0.05 0.00 73 969.1
20260503050640 4 265 0.0 0.0 0.00 0.08 0.00 73 969.1
20260503050134 4 265 0.0 0.0 0.00 0.08 0.00 72 969.2
20260503045628 4 268 0.0 0.0 0.00 0.08 0.00 73 969.1
20260503045121 4 265 0.0 0.0 0.00 0.08 0.00 73 969.2
20260503044837 4 265 0.0 0.0 0.00 0.08 0.00 75 969.2
20260503044330 4 265 0.0 0.0 0.00 0.08 0.00 74 969.2
20260503043604 4 265 0.0 0.0 0.00 0.08 0.00 75 969.1
20260503043058 4 265 0.0 6.4 0.00 0.08 0.00 73 969.2
20260503042552 4 252 0.0 6.4 0.00 0.08 0.00 71 969.2
20260503042046 4 32 0.0 0.0 0.00 0.10 0.00 77 969.2
20260503041540 4 290 0.0 0.0 0.00 0.13 0.00 74 969.2
20260503041034 4 290 0.0 0.0 0.00 0.13 0.00 75 969.2
20260503040528 4 290 0.0 0.0 0.00 0.15 0.00 74 969.2
20260503040238 5 290 0.0 0.0 0.00 0.18 0.00 73 969.2
20260503035514 5 290 0.0 0.0 0.00 0.20 0.20 73 969.2
20260503035008 5 290 0.0 1.6 0.00 0.20 0.20 73 969.3
20260503034502 5 290 0.0 1.6 0.00 0.20 0.20 70 969.3
20260503033956 5 290 0.0 3.2 0.00 0.20 0.20 71 969.3
20260503033708 5 290 0.0 3.2 0.00 0.20 0.20 71 969.4
20260503032944 5 55 0.0 0.0 0.00 0.20 0.20 71 969.4
20260503032438 5 55 0.0 3.2 0.00 0.20 0.20 71 969.4
20260503031932 5 32 0.0 3.2 0.00 0.20 0.20 71 969.5
20260503031656 5 33 0.0 3.2 0.00 0.20 0.20 71 969.6
20260503030919 5 285 0.0 0.0 0.00 0.20 0.20 73 969.5
20260503030642 5 315 0.0 0.0 0.00 0.20 0.20 74 969.5
20260503025908 5 315 0.0 0.0 0.00 0.20 0.20 73 969.5
20260503025401 5 269 0.0 0.0 0.00 0.20 0.20 74 969.5
20260503024856 5 304 0.0 0.0 0.00 0.20 0.20 72 969.5
20260503024349 5 256 0.0 0.0 0.00 0.20 0.20 73 969.6
20260503023842 5 288 0.0 0.0 0.00 0.20 0.20 73 969.5
20260503023336 5 289 0.0 0.0 0.00 0.20 0.20 73 969.6
20260503023052 5 296 0.0 1.6 0.00 0.20 0.20 73 969.6
20260503022324 5 296 0.0 1.6 0.00 0.20 0.20 72 969.6
20260503021818 5 295 0.0 1.6 0.00 0.20 0.20 73 969.6
20260503021312 5 302 0.0 1.6 0.00 0.20 0.20 74 969.6
20260503020806 5 300 0.0 3.2 0.00 0.20 0.20 75 969.6
20260503020259 5 302 0.0 4.8 0.00 0.20 0.20 75 969.5
20260503020022 5 313 0.0 4.8 0.00 0.20 0.20 76 969.5
20260503015248 5 281 0.0 3.2 0.00 0.20 0.20 76 969.4
20260503014742 5 291 0.0 3.2 0.00 0.20 0.20 77 969.4
20260503014236 5 273 0.0 3.2 0.00 0.20 0.20 79 969.4
20260503013730 5 38 0.0 4.8 0.00 0.20 0.20 79 969.4
20260503013224 5 289 0.0 4.8 0.00 0.20 0.20 79 969.4
20260503012718 5 302 0.0 3.2 0.00 0.20 0.20 79 969.4
20260503012212 5 304 0.0 3.2 0.00 0.20 0.20 79 969.3
20260503011706 5 294 0.0 1.6 0.00 0.20 0.20 79 969.3
20260503011200 5 300 0.0 3.2 0.00 0.20 0.20 79 969.2
20260503010654 5 300 0.0 3.2 0.00 0.20 0.20 80 969.2
20260503010148 5 329 0.0 0.0 0.00 0.20 0.20 81 969.2
20260503005642 5 329 0.0 0.0 0.00 0.20 0.20 80 969.1
20260503005136 6 329 0.0 3.2 0.00 0.20 0.20 79 969.1
20260503004630 6 300 0.0 8.0 0.00 0.20 0.20 79 969.1
20260503004124 6 177 0.0 8.0 0.00 0.20 0.20 79 969.0
20260503003835 6 303 0.0 0.0 0.00 0.20 0.20 81 968.9
20260503003112 6 328 0.0 0.0 0.00 0.23 0.20 80 968.9
20260503002606 6 300 0.0 0.0 0.00 0.23 0.20 80 968.8
20260503002059 6 298 0.0 0.0 0.00 0.23 0.20 80 968.7
20260503001554 6 298 0.0 0.0 0.00 0.23 0.20 79 968.8
20260503001047 6 311 0.0 1.6 0.00 0.23 0.20 79 968.8
20260503000541 6 298 0.0 3.2 0.00 0.23 0.20 78 968.8
20260503000036 6 298 0.0 3.2 0.00 0.25 0.20 77 968.8
20260502235529 6 305 0.0 3.2 0.00 0.25 0.20 77 968.8
20260502235024 6 282 0.0 1.6 0.00 0.25 0.20 77 968.7
20260502234518 6 39 0.0 0.0 0.00 0.28 0.20 79 968.6
20260502234012 6 32 0.0 3.2 0.00 0.28 0.20 78 968.7
20260502233506 6 32 0.0 3.2 0.00 0.28 0.20 78 968.7
20260502233217 6 39 0.0 3.2 0.00 0.28 0.20 77 968.7
20260502232455 6 22 0.0 0.0 0.00 0.28 0.20 76 968.6
20260502232214 6 23 0.0 4.8 0.00 0.28 0.20 76 968.6
20260502231442 6 22 1.6 4.8 0.00 0.28 0.20 76 968.6
20260502230936 6 340 1.6 9.7 0.00 0.28 0.20 76 968.5
20260502230429 7 23 1.6 9.7 0.00 0.28 0.20 75 968.5
20260502225924 7 276 0.0 3.2 0.00 0.28 0.20 75 968.5
20260502225418 7 345 0.0 3.2 0.00 0.28 0.20 75 968.5
20260502224912 7 13 0.0 0.0 0.00 0.28 0.20 74 968.5
20260502224406 7 288 0.0 3.2 0.00 0.28 0.20 75 968.4
20260502223900 7 289 0.0 6.4 0.00 0.28 0.20 74 968.4
20260502223354 7 294 0.0 6.4 0.00 0.28 0.20 73 968.4
20260502222847 7 299 0.0 1.6 0.00 0.28 0.20 75 968.4
20260502222342 7 290 0.0 1.6 0.00 0.28 0.20 73 968.4
20260502221843 7 30 0.0 0.0 0.00 0.28 0.20 74 968.3
20260502221339 7 315 0.0 0.0 0.00 0.28 0.20 74 968.4
20260502220839 7 285 0.0 0.0 0.00 0.28 0.20 75 968.4
20260502220339 7 317 0.0 1.6 0.00 0.28 0.20 75 968.4
20260502215839 7 304 0.0 6.4 0.00 0.28 0.20 75 968.4
20260502215337 7 32 1.6 8.0 0.00 0.28 0.20 76 968.4
20260502214836 7 40 1.6 8.0 0.00 0.28 0.20 76 968.4
20260502214336 7 256 1.6 6.4 0.00 0.28 0.20 77 968.4
20260502213833 7 338 0.0 0.0 0.00 0.28 0.20 79 968.3
20260502213552 7 349 1.6 4.8 0.00 0.30 0.20 78 968.3
20260502212832 7 10 1.6 4.8 0.00 0.30 0.20 78 968.3
20260502212332 6 35 0.0 4.8 0.00 0.30 0.20 79 968.3
20260502211832 6 305 0.0 4.8 0.00 0.30 0.20 78 968.3
20260502211331 6 19 0.0 3.2 0.00 0.30 0.20 78 968.3
20260502211313 7 41 0.0 1.6 0.00 0.30 0.20 79 968.3
20260502210554 7 304 0.0 1.6 0.00 0.30 0.20 79 968.2
20260502205827 7 19 0.0 1.6 0.00 0.30 0.20 79 968.2
20260502205325 7 254 0.0 8.0 0.00 0.30 0.20 78 968.2
20260502204824 7 94 1.6 8.0 0.00 0.33 0.20 77 968.3
20260502204322 7 306 1.6 6.4 0.00 0.33 0.20 77 968.3
20260502203823 7 27 1.6 6.4 0.00 0.33 0.20 77 968.3
20260502203321 7 38 3.2 11.3 0.00 0.33 0.20 77 968.2
20260502202821 7 348 3.2 11.3 0.00 0.36 0.20 76 968.3
20260502202546 7 343 1.6 9.7 0.00 0.36 0.20 76 968.2
20260502201821 7 54 1.6 6.4 0.00 0.36 0.20 77 968.3
20260502201322 7 296 1.6 14.5 0.00 0.38 0.20 76 968.3
20260502200822 7 346 3.2 14.5 0.00 0.41 0.20 76 968.2